Location: Bastelaar
(51.0950°N, 3.8602°E)
Time: 17:55:48
(UTC+00:00)

Cosmos 676 Rocket - Pass Details

Date: 18 November 2025
Orbit: 750 x 779 km, 74.0° (Epoch: 10 December)

Event Time Altitude Azimuth Distance (km) Brightness Sun altitude
Rises 17:57:46 0° 187° (S) 3,249 7.4 -19.3°
Reaches altitude 10° 18:00:11 10° 183° (S) 2,324 6.6 -19.7°
Maximum altitude 18:05:18 53° 107° (ESE) 953 4.1 -20.5°
Enters shadow 18:06:42 41° 61° (ENE) 1,116 4.4 -20.7°
